When you browse on this site, cookies collect data to enhance your experience and personalize the content and advertising you see.
Visit our Privacy Policy to learn more. By continuing to use the site, you agree to this use of cookies and data.
  • In Switzerland
  • List of Countries
  • For 7 days
  • Water Temperature
  • Satellite Maps
  • Weather Map
  • Weather Widgets
  • user-avatar
    Login

    Hourly Weather Malanje

    Today, 20 January, Sunday

    Time Temperature Precipitation Wind Pressure Humidity
    00:00 +20°C° 0 mm 1 mps 666 mmHg 97%
    01:00 +19°C° 0 mm 1 mps 665 mmHg 98%
    02:00 +19°C° 0 mm 1 mps 665 mmHg 98%
    03:00 +19°C° 0 mm 1 mps 665 mmHg 98%
    04:00 +19°C° 0 mm 1 mps 665 mmHg 99%
    05:00 +19°C° 0 mm 1 mps 665 mmHg 98%
    06:00 +19°C° 0 mm 1 mps 666 mmHg 97%
    07:00 +20°C° 0 mm 1 mps 666 mmHg 96%
    08:00 +20°C° 0 mm 1 mps 667 mmHg 93%
    09:00 +21°C° 0 mm 1 mps 667 mmHg 91%
    10:00 +22°C° 0 mm 1 mps 667 mmHg 88%
    11:00 +23°C° 0.3 mm 2 mps 667 mmHg 84%
    12:00 +24°C° 0.3 mm 2 mps 667 mmHg 79%
    13:00 +26°C° 0.3 mm 2 mps 667 mmHg 75%
    14:00 +25°C° 0.6 mm 2 mps 666 mmHg 77%
    15:00 +25°C° 0.6 mm 2 mps 665 mmHg 78%
    16:00 +25°C° 0.6 mm 3 mps 665 mmHg 80%
    17:00 +24°C° 0.1 mm 2 mps 665 mmHg 85%
    18:00 +21°C° 0.1 mm 2 mps 665 mmHg 91%
    19:00 +21°C° 0.1 mm 1 mps 665 mmHg 96%
    20:00 +20°C° 0 mm 1 mps 665 mmHg 96%
    21:00 +20°C° 0 mm 1 mps 666 mmHg 97%
    22:00 +20°C° 0 mm 1 mps 666 mmHg 97%
    23:00 +19°C° 0 mm 1 mps 666 mmHg 97%

    Tomorrow, 21 January, Monday

    Time Temperature Precipitation Wind Pressure Humidity
    00:00 +19°C° 0 mm 1 mps 666 mmHg 98%
    01:00 +19°C° 0 mm 1 mps 666 mmHg 99%
    02:00 +19°C° 0 mm 1 mps 666 mmHg 99%
    03:00 +19°C° 0 mm 1 mps 666 mmHg 98%
    04:00 +19°C° 0 mm 1 mps 666 mmHg 98%
    05:00 +18°C° 0 mm 2 mps 666 mmHg 98%
    06:00 +18°C° 0 mm 2 mps 666 mmHg 97%
    07:00 +19°C° 0 mm 2 mps 667 mmHg 96%
    08:00 +20°C° 0 mm 2 mps 667 mmHg 92%
    09:00 +21°C° 0 mm 2 mps 667 mmHg 88%
    10:00 +23°C° 0 mm 2 mps 667 mmHg 84%
    11:00 +24°C° 0 mm 2 mps 667 mmHg 78%
    12:00 +25°C° 0 mm 2 mps 667 mmHg 72%
    13:00 +27°C° 0 mm 3 mps 666 mmHg 66%
    14:00 +26°C° 0 mm 2 mps 666 mmHg 68%
    15:00 +26°C° 0 mm 2 mps 665 mmHg 70%
    16:00 +26°C° 0 mm 2 mps 664 mmHg 73%
    17:00 +24°C° 0 mm 2 mps 665 mmHg 78%
    18:00 +23°C° 0 mm 2 mps 665 mmHg 83%
    19:00 +21°C° 0 mm 2 mps 665 mmHg 88%
    20:00 +20°C° 0 mm 2 mps 665 mmHg 89%
    21:00 +20°C° 0 mm 1 mps 666 mmHg 91%
    22:00 +20°C° 0 mm 1 mps 667 mmHg 93%
    23:00 +19°C° 0 mm 1 mps 666 mmHg 94%

    Day after tomorrow, 22 January, Tuesday

    Time Temperature Precipitation Wind Pressure Humidity
    00:00 +19°C° 0 mm 1 mps 666 mmHg 96%
    01:00 +19°C° 0 mm 1 mps 665 mmHg 97%
    02:00 +18°C° 0 mm 1 mps 665 mmHg 97%
    03:00 +18°C° 0 mm 1 mps 665 mmHg 98%
    04:00 +18°C° 0 mm 1 mps 665 mmHg 98%
    05:00 +18°C° 0 mm 1 mps 665 mmHg 96%
    06:00 +19°C° 0 mm 1 mps 665 mmHg 94%
    07:00 +19°C° 0 mm 1 mps 666 mmHg 91%
    08:00 +21°C° 0 mm 1 mps 666 mmHg 82%
    09:00 +24°C° 0 mm 2 mps 667 mmHg 72%
    10:00 +26°C° 0 mm 3 mps 668 mmHg 62%
    11:00 +27°C° 0 mm 3 mps 667 mmHg 59%
    12:00 +28°C° 0 mm 3 mps 666 mmHg 55%
    13:00 +29°C° 0 mm 4 mps 666 mmHg 52%
    14:00 +29°C° 0 mm 3 mps 665 mmHg 54%
    15:00 +29°C° 0 mm 3 mps 665 mmHg 56%
    16:00 +28°C° 0 mm 3 mps 664 mmHg 58%
    17:00 +26°C° 0 mm 3 mps 664 mmHg 65%
    18:00 +25°C° 0 mm 2 mps 664 mmHg 72%
    19:00 +23°C° 0 mm 2 mps 664 mmHg 78%
    20:00 +21°C° 0 mm 2 mps 665 mmHg 80%
    21:00 +20°C° 0 mm 2 mps 665 mmHg 81%
    22:00 +20°C° 0 mm 2 mps 666 mmHg 82%
    23:00 +19°C° 0 mm 2 mps 666 mmHg 84%

    23 January, Wednesday

    Time Temperature Precipitation Wind Pressure Humidity
    00:00 +18°C° 0 mm 2 mps 665 mmHg 86%
    01:00 +18°C° 0 mm 2 mps 665 mmHg 88%
    02:00 +18°C° 0 mm 2 mps 665 mmHg 90%
    03:00 +18°C° 0 mm 2 mps 664 mmHg 92%
    04:00 +17°C° 0 mm 2 mps 664 mmHg 94%
    05:00 +18°C° 0 mm 2 mps 665 mmHg 93%
    06:00 +18°C° 0 mm 2 mps 665 mmHg 93%
    07:00 +18°C° 0 mm 2 mps 665 mmHg 92%
    08:00 +20°C° 0 mm 2 mps 666 mmHg 82%
    09:00 +22°C° 0 mm 3 mps 667 mmHg 72%
    10:00 +25°C° 0 mm 4 mps 667 mmHg 62%
    11:00 +26°C° 0 mm 3 mps 667 mmHg 59%
    12:00 +27°C° 0 mm 3 mps 666 mmHg 57%
    13:00 +28°C° 0 mm 3 mps 665 mmHg 54%
    14:00 +28°C° 0.1 mm 3 mps 665 mmHg 56%
    15:00 +28°C° 0.1 mm 3 mps 664 mmHg 59%
    16:00 +28°C° 0.1 mm 3 mps 664 mmHg 61%
    17:00 +26°C° 0.1 mm 2 mps 664 mmHg 67%
    18:00 +24°C° 0.1 mm 2 mps 664 mmHg 72%
    19:00 +22°C° 0.1 mm 1 mps 664 mmHg 77%
    20:00 +21°C° 0 mm 1 mps 665 mmHg 78%
    21:00 +21°C° 0 mm 1 mps 665 mmHg 79%
    22:00 +20°C° 0 mm 1 mps 665 mmHg 79%
    23:00 +20°C° 0 mm 1 mps 665 mmHg 81%

    24 January, Thursday

    Time Temperature Precipitation Wind Pressure Humidity
    00:00 +19°C° 0 mm 1 mps 664 mmHg 82%
    01:00 +19°C° 0 mm 1 mps 664 mmHg 83%
    02:00 +19°C° 0 mm 1 mps 664 mmHg 83%
    03:00 +18°C° 0 mm 1 mps 663 mmHg 84%
    04:00 +18°C° 0 mm 1 mps 663 mmHg 84%
    05:00 +18°C° 0 mm 1 mps 663 mmHg 84%
    06:00 +19°C° 0 mm 1 mps 664 mmHg 83%
    07:00 +19°C° 0 mm 1 mps 665 mmHg 83%
    08:00 +21°C° 0 mm 1 mps 665 mmHg 78%
    09:00 +23°C° 0 mm 1 mps 666 mmHg 73%
    10:00 +25°C° 0 mm 1 mps 666 mmHg 68%
    11:00 +26°C° 0 mm 1 mps 666 mmHg 67%
    12:00 +27°C° 0 mm 1 mps 665 mmHg 66%
    13:00 +26°C° 0 mm 0 mps 665 mmHg 66%
    14:00 +28°C° 1.3 mm 1 mps 664 mmHg 68%
    15:00 +28°C° 1.3 mm 1 mps 664 mmHg 69%
    16:00 +27°C° 1.3 mm 1 mps 663 mmHg 71%
    17:00 +26°C° 0.4 mm 1 mps 663 mmHg 76%
    18:00 +24°C° 0.4 mm 1 mps 663 mmHg 81%
    19:00 +23°C° 0.4 mm 1 mps 664 mmHg 86%
    20:00 +22°C° 0 mm 1 mps 664 mmHg 88%
    21:00 +22°C° 0 mm 1 mps 664 mmHg 90%
    22:00 +21°C° 0 mm 1 mps 665 mmHg 91%
    23:00 +21°C° 0 mm 1 mps 664 mmHg 93%

    25 January, Friday

    Time Temperature Precipitation Wind Pressure Humidity
    00:00 +20°C° 0 mm 1 mps 664 mmHg 95%
    01:00 +20°C° 0 mm 1 mps 664 mmHg 96%
    02:00 +20°C° 0 mm 1 mps 664 mmHg 97%
    03:00 +19°C° 0 mm 1 mps 664 mmHg 98%
    04:00 +19°C° 0 mm 1 mps 664 mmHg 99%
    05:00 +20°C° 0 mm 1 mps 664 mmHg 97%
    06:00 +18°C° 0 mm 0 mps 665 mmHg 96%
    07:00 +19°C° 0 mm 0 mps 665 mmHg 95%
    08:00 +22°C° 0 mm 0 mps 666 mmHg 85%
    09:00 +25°C° 0 mm 0 mps 667 mmHg 75%
    10:00 +28°C° 0 mm 0 mps 667 mmHg 65%
    11:00 +28°C° 0.5 mm 0 mps 667 mmHg 60%
    12:00 +31°C° 0.5 mm 1 mps 666 mmHg 56%
    13:00 +31°C° 0.5 mm 1 mps 665 mmHg 51%
    14:00 +31°C° 0 mm 1 mps 665 mmHg 52%
    15:00 +31°C° 0 mm 1 mps 664 mmHg 53%
    16:00 +30°C° 0 mm 1 mps 664 mmHg 54%
    17:00 +28°C° 0 mm 1 mps 664 mmHg 59%
    18:00 +26°C° 0 mm 1 mps 664 mmHg 65%
    19:00 +24°C° 0 mm 1 mps 664 mmHg 71%
    20:00 +23°C° 0 mm 1 mps 664 mmHg 73%
    21:00 +23°C° 0 mm 1 mps 665 mmHg 74%
    22:00 +22°C° 0 mm 1 mps 665 mmHg 76%
    23:00 +22°C° 0 mm 1 mps 665 mmHg 80%
    Show more